Hourly Data Report for January 12, 2018

All times are specified in Local Standard Time (LST). Add 1 hour to adjust for Daylight Saving Time where and when it is observed.

MOOSE JAW CS
SASKATCHEWAN

50°19'54.050" N
105°32'15.030" W
577.00 m
4015322
71539
ZMJ

Download Data

Hourly Data (January 2018)
Hourly Data Report for January 12, 2018
Temp Definition
°C
Dew Point Temp Definition
°C
Rel Hum Definition
%
Wind Dir Definition
10's deg

Wind Spd Definition
km/h
Visibility Definition
km
Stn Press Definition
kPa
Hmdx Definition


Wind Chill Definition


Weather Definition


TIME
00:00 -31.3 -34.8 71 2 4   96.04   -36 LegendNANA
01:00 -31.8 -35.4 71 27 10   96.08   -41 LegendNANA
02:00 -31.4 -34.9 71 29 7   96.11   -39 LegendNANA
03:00 -32.7 -37.2 64 31 3   96.16   -36 LegendNANA
04:00 -31.2 -34.7 71 30 6   96.23   -38 LegendNANA
05:00 -32.2 -35.9 70 28 7   96.26   -40 LegendNANA
06:00 -32.2 -36.1 69 28 8   96.30   -41 LegendNANA
07:00 -32.1 -35.8 70 28 11   96.36   -42 LegendNANA
08:00 -31.9 -35.3 72 29 10   96.40   -41 LegendNANA
09:00 -31.5 -35.1 70 28 7   96.47   -39 LegendNANA
10:00 -29.3 -32.8 72 28 10   96.61   -38 LegendNANA
11:00 -24.9 -28.4 73 28 13   96.71   -34 LegendNANA
12:00 -23.0 -27.3 68 28 11   96.74   -31 LegendNANA
13:00 -21.9 -27.0 64 30 9   96.69   -29 LegendNANA
14:00 -21.2 -26.9 60 33 6   96.65   -26 LegendNANA
15:00 -20.2 -27.1 54 28 5   96.69   -25 LegendNANA
16:00 -20.2 -27.5 52 6 2   96.67   -22 LegendNANA
17:00 -21.0 -27.6 55 15 3   96.68   -24 LegendNANA
18:00 -24.9 -28.9 70 23 8   96.72   -32 LegendNANA
19:00 -26.9 -30.1 74 19 6   96.71   -33 LegendNANA
20:00 -29.6 -33.1 72 18 5   96.71   -35 LegendNANA
21:00 -30.1 -33.5 72 14 9   96.67   -39 LegendNANA
22:00 -29.8 -33.2 72 17 10   96.57   -39 LegendNANA
23:00 -30.5 -33.9 72 15 11   96.49   -40 LegendNANA

Notes on Data Quality.

Legend

  • E = Estimated
  • M = Missing
  • NA = Not Available
Date modified: